TimeCST,TemperatureF,Dew PointF,Humidity,Sea Level PressureIn,VisibilityMPH,Wind Direction,Wind SpeedMPH,Gust SpeedMPH,PrecipitationIn,Events,Conditions,WindDirDegrees,DateUTC
12:13 AM,39.2,26.6,61,29.68,10.0,SSE,13.8,19.6,N/A,,Mostly Cloudy,150,2012-12-06 06:13:00
12:54 AM,39.2,28.4,65,29.69,10.0,SSE,9.2,-,N/A,,Light Drizzle,160,2012-12-06 06:54:00
1:13 AM,39.2,28.4,65,29.69,10.0,South,8.1,-,N/A,Rain,Light Rain,170,2012-12-06 07:13:00
1:33 AM,37.4,30.2,75,29.70,10.0,Calm,Calm,-,N/A,Rain,Light Rain,0,2012-12-06 07:33:00
1:54 AM,37.4,30.2,75,29.69,10.0,South,4.6,-,N/A,,Mostly Cloudy,190,2012-12-06 07:54:00
2:13 AM,37.4,30.2,75,29.69,10.0,SSW,5.8,-,N/A,,Scattered Clouds,200,2012-12-06 08:13:00
2:33 AM,35.6,28.4,75,29.71,10.0,SSW,5.8,-,N/A,,Scattered Clouds,210,2012-12-06 08:33:00
2:54 AM,35.6,30.2,81,29.71,10.0,SW,6.9,-,N/A,,Mostly Cloudy,220,2012-12-06 08:54:00
3:13 AM,35.6,28.4,75,29.72,10.0,SW,6.9,-,N/A,,Mostly Cloudy,230,2012-12-06 09:13:00
3:33 AM,33.8,28.4,81,29.72,10.0,WSW,5.8,-,N/A,,Clear,250,2012-12-06 09:33:00
3:54 AM,32.0,26.6,80,29.73,10.0,SW,4.6,-,N/A,,Clear,230,2012-12-06 09:54:00
4:13 AM,30.2,26.6,86,29.74,10.0,WSW,5.8,-,N/A,,Clear,250,2012-12-06 10:13:00
4:33 AM,30.2,24.8,80,29.75,10.0,West,6.9,-,N/A,,Clear,260,2012-12-06 10:33:00
4:54 AM,28.4,24.8,86,29.75,10.0,West,8.1,-,N/A,,Clear,280,2012-12-06 10:54:00
5:13 AM,32.0,26.6,80,29.76,10.0,WNW,15.0,19.6,N/A,,Clear,300,2012-12-06 11:13:00
5:33 AM,30.2,26.6,86,29.77,10.0,WNW,11.5,-,N/A,,Scattered Clouds,300,2012-12-06 11:33:00
5:54 AM,30.2,24.8,80,29.77,10.0,West,8.1,-,N/A,,Scattered Clouds,280,2012-12-06 11:54:00
6:13 AM,30.2,26.6,86,29.78,10.0,West,6.9,-,N/A,,Mostly Cloudy,280,2012-12-06 12:13:00
6:33 AM,32.0,26.6,80,29.79,10.0,WNW,15.0,-,N/A,,Overcast,300,2012-12-06 12:33:00
6:54 AM,33.8,28.4,81,29.80,10.0,WNW,11.5,-,N/A,,Overcast,300,2012-12-06 12:54:00
7:13 AM,33.8,28.4,81,29.80,10.0,NW,18.4,24.2,N/A,,Overcast,310,2012-12-06 13:13:00
7:33 AM,33.8,26.6,75,29.81,10.0,NW,21.9,26.5,N/A,,Overcast,320,2012-12-06 13:33:00
7:54 AM,30.2,24.8,80,29.83,10.0,NNW,17.3,21.9,N/A,,Overcast,330,2012-12-06 13:54:00
8:13 AM,28.4,24.8,86,29.84,10.0,NW,12.7,-,N/A,,Mostly Cloudy,320,2012-12-06 14:13:00
8:33 AM,28.4,24.8,86,29.85,10.0,NW,12.7,-,N/A,,Mostly Cloudy,310,2012-12-06 14:33:00
8:54 AM,28.4,21.2,74,29.86,10.0,NW,13.8,19.6,N/A,,Overcast,320,2012-12-06 14:54:00
9:13 AM,28.4,21.2,74,29.86,10.0,NW,17.3,-,N/A,,Mostly Cloudy,320,2012-12-06 15:13:00
9:33 AM,28.4,21.2,74,29.87,10.0,NW,17.3,23.0,N/A,,Scattered Clouds,320,2012-12-06 15:33:00
9:54 AM,28.4,21.2,74,29.88,10.0,NW,15.0,23.0,N/A,,Scattered Clouds,320,2012-12-06 15:54:00
10:13 AM,28.4,21.2,74,29.88,10.0,NNW,16.1,-,N/A,,Scattered Clouds,340,2012-12-06 16:13:00
10:33 AM,28.4,21.2,74,29.89,10.0,NNW,15.0,-,N/A,,Mostly Cloudy,340,2012-12-06 16:33:00
10:54 AM,30.2,21.2,69,29.89,10.0,NW,15.0,19.6,N/A,,Mostly Cloudy,320,2012-12-06 16:54:00
11:13 AM,30.2,21.2,69,29.89,10.0,NNW,15.0,18.4,N/A,,Mostly Cloudy,330,2012-12-06 17:13:00
11:34 AM,32.0,23.0,69,29.89,10.0,NNW,15.0,23.0,N/A,,Mostly Cloudy,340,2012-12-06 17:34:00
11:53 AM,30.2,19.4,64,29.89,10.0,NW,19.6,24.2,N/A,,Mostly Cloudy,320,2012-12-06 17:53:00
12:13 PM,30.2,21.2,69,29.90,10.0,NNW,16.1,20.7,N/A,,Scattered Clouds,330,2012-12-06 18:13:00
12:33 PM,30.2,19.4,64,29.90,10.0,NW,20.7,-,N/A,,Mostly Cloudy,320,2012-12-06 18:33:00
12:53 PM,30.2,19.4,64,29.90,10.0,NW,15.0,23.0,N/A,,Mostly Cloudy,320,2012-12-06 18:53:00
1:13 PM,30.2,21.2,69,29.91,10.0,WNW,16.1,-,N/A,,Mostly Cloudy,300,2012-12-06 19:13:00
1:33 PM,30.2,21.2,69,29.91,10.0,NNW,16.1,-,N/A,,Mostly Cloudy,330,2012-12-06 19:33:00
1:53 PM,30.2,21.2,69,29.91,10.0,NW,18.4,24.2,N/A,,Scattered Clouds,320,2012-12-06 19:53:00
2:13 PM,30.2,19.4,64,29.91,10.0,NW,16.1,-,N/A,,Clear,320,2012-12-06 20:13:00
2:33 PM,30.2,19.4,64,29.92,10.0,NNW,12.7,-,N/A,,Clear,340,2012-12-06 20:33:00
2:53 PM,30.2,19.4,64,29.92,10.0,NW,12.7,-,N/A,,Clear,320,2012-12-06 20:53:00
3:14 PM,30.2,19.4,64,29.93,10.0,NNW,10.4,-,N/A,,Clear,330,2012-12-06 21:14:00
3:33 PM,30.2,19.4,64,29.94,10.0,NW,12.7,-,N/A,,Clear,320,2012-12-06 21:33:00
3:53 PM,30.2,19.4,64,29.94,10.0,NW,16.1,-,N/A,,Clear,320,2012-12-06 21:53:00
4:14 PM,30.2,19.4,64,29.95,10.0,NW,10.4,-,N/A,,Clear,320,2012-12-06 22:14:00
4:33 PM,28.4,19.4,69,29.95,10.0,NW,9.2,-,N/A,,Clear,310,2012-12-06 22:33:00
4:53 PM,26.6,19.4,74,29.96,10.0,NW,8.1,-,N/A,,Clear,320,2012-12-06 22:53:00
5:14 PM,26.6,17.6,69,29.96,10.0,NW,8.1,-,N/A,,Clear,320,2012-12-06 23:14:00
5:33 PM,24.8,17.6,74,29.96,10.0,NW,6.9,-,N/A,,Clear,320,2012-12-06 23:33:00
5:53 PM,24.8,17.6,74,29.97,10.0,NW,6.9,-,N/A,,Clear,310,2012-12-06 23:53:00
6:14 PM,23.0,17.6,80,29.97,10.0,NW,5.8,-,N/A,,Clear,310,2012-12-07 00:14:00
6:33 PM,23.0,15.8,74,29.99,10.0,WNW,5.8,-,N/A,,Clear,300,2012-12-07 00:33:00
6:53 PM,21.2,15.8,80,29.98,10.0,NW,9.2,-,N/A,,Clear,310,2012-12-07 00:53:00
7:14 PM,21.2,15.8,80,29.98,10.0,NW,5.8,-,N/A,,Clear,310,2012-12-07 01:14:00
7:33 PM,23.0,17.6,80,29.96,10.0,Calm,Calm,-,N/A,,Clear,0,2012-12-07 01:33:00
7:53 PM,19.4,15.8,86,29.98,10.0,Calm,Calm,-,N/A,,Clear,0,2012-12-07 01:53:00
8:33 PM,19.4,15.8,86,30.00,10.0,SW,5.8,-,N/A,,Clear,230,2012-12-07 02:33:00
8:53 PM,19.4,15.8,86,30.00,10.0,West,3.5,-,N/A,,Clear,270,2012-12-07 02:53:00
9:14 PM,19.4,15.8,86,30.00,10.0,WNW,3.5,-,N/A,,Clear,300,2012-12-07 03:14:00
9:33 PM,21.2,17.6,86,30.00,10.0,Calm,Calm,-,N/A,,Clear,0,2012-12-07 03:33:00
9:53 PM,19.4,15.8,86,30.00,10.0,Calm,Calm,-,N/A,,Clear,0,2012-12-07 03:53:00
10:13 PM,19.4,15.8,86,30.00,10.0,Calm,Calm,-,N/A,,Clear,0,2012-12-07 04:13:00
10:53 PM,21.2,17.6,86,30.00,10.0,Calm,Calm,-,N/A,,Clear,0,2012-12-07 04:53:00
11:13 PM,21.2,17.6,86,30.00,10.0,Calm,Calm,-,N/A,,Clear,0,2012-12-07 05:13:00
11:33 PM,19.4,15.8,86,30.00,10.0,Calm,Calm,-,N/A,,Clear,0,2012-12-07 05:33:00
11:53 PM,19.4,17.6,93,30.00,10.0,Calm,Calm,-,N/A,,Clear,0,2012-12-07 05:53:00